STARLINK-2673 (48649 NORAD) Tracking and Keplerian Element Data

This shows tracking and keplerian element data for the satellite.

Feedback or suggestion? Click here.




ElementValue
Catalog48649
NameSTARLINK-2673
Epoch Orbit2237
Epoch Day287.97130713
Epoch Year2021
RAAN134.4615
Inclination53.0506
Eccentricity0.0001815
Argument of Perigee80.1348
Mean Anonmoly279.9846
Mean Motion15.06379788
Decay Rate6.4E-07
L11 48649U 21044M 21287.97130713 .00000064 00000-0 23232-4 0 9999
L22 48649 53.0506 134.4615 0001815 80.1348 279.9846 15.06379788 22378

Live tracking and technical data element details for STARLINK-2673 (NORAD 48649). STARLINK-2673 can be tracked NOW for your location showing map with azimuth and elevation plus other details from your city location.

Track the satellite on the map from your city or location and see movement details for azimuth, elevation, latitude, longitude, range, height, and movement on the map or in text.







IsCatalogInMostPopularTable: catalog: 48649, numindb: 34
Update: records affected: 1



GetName: 48649 STARLINK-2673

Hit Count: updated at: Tue, 19 Oct 2021 08:57:50 GMT